BENGL21 KLAL-KNBC

Flight info

Callsign BENGL21
Flight time N/A
Altitude 25000
Route JAX SSI
Aircraft F35/M-SDFIRY/LB1

Departure

Time 2026-04-26 21:33
Airport Lakeland Linder International Airport (KLAL)

Arrival

Time N/A
Airport Beaufort MCAS - Merritt Field (KNBC)
Time Latitude Longitude Altitude Speed Heading
2026-04-26 21:17 27.98606 -82.02099 140 ft 0 kts
2026-04-26 21:26 27.98607 -82.02099 140 ft 1 kts 12°
2026-04-26 21:26 27.98560 -82.02031 139 ft 20 kts 147°
2026-04-26 21:27 27.98522 -82.02024 139 ft 21 kts 191°
2026-04-26 21:27 27.98426 -82.02109 137 ft 13 kts 181°
2026-04-26 21:27 27.98404 -82.02097 137 ft 0 kts 136°
2026-04-26 21:29 27.98320 -82.01981 138 ft 26 kts 105°
2026-04-26 21:29 27.98322 -82.01761 139 ft 30 kts 90°
2026-04-26 21:29 27.98330 -82.01536 141 ft 27 kts 88°
2026-04-26 21:29 27.98335 -82.01332 143 ft 25 kts 86°
2026-04-26 21:30 27.98337 -82.01148 145 ft 22 kts 88°
2026-04-26 21:30 27.98341 -82.00985 146 ft 18 kts 87°
2026-04-26 21:30 27.98384 -82.00912 147 ft 19 kts 335°
2026-04-26 21:30 27.98536 -82.01071 146 ft 35 kts 313°
2026-04-26 21:31 27.98668 -82.01201 146 ft 0 kts 335°
2026-04-26 21:31 27.98683 -82.01200 146 ft 19 kts
2026-04-26 21:31 27.98735 -82.01023 147 ft 25 kts 78°
2026-04-26 21:31 27.98765 -82.00860 148 ft 18 kts 78°
2026-04-26 21:32 27.98804 -82.00756 148 ft 13 kts
2026-04-26 21:32 27.98845 -82.00759 148 ft 0 kts 358°
2026-04-26 21:33 27.98846 -82.00759 148 ft 1 kts 358°
2026-04-26 21:33 27.98934 -82.00828 149 ft 31 kts 266°
2026-04-26 21:33 27.98936 -82.01932 429 ft 210 kts 270°
2026-04-26 21:33 27.98988 -82.03911 1825 ft 253 kts 273°
2026-04-26 21:34 27.99064 -82.05681 2011 ft 208 kts 279°
2026-04-26 21:34 27.99752 -82.06893 1892 ft 193 kts 330°
2026-04-26 21:34 28.01444 -82.07191 1865 ft 304 kts
2026-04-26 21:34 28.03677 -82.05639 1585 ft 472 kts 51°
2026-04-26 21:35 28.04838 -82.01753 1541 ft 582 kts 86°
2026-04-26 21:35 28.04710 -81.97515 1933 ft 484 kts 94°
2026-04-26 21:35 28.04464 -81.94058 2201 ft 414 kts 95°
2026-04-26 21:35 28.04247 -81.91015 2414 ft 361 kts 94°
2026-04-26 21:36 28.04056 -81.88353 2573 ft 318 kts 94°
2026-04-26 21:36 28.03941 -81.86766 2580 ft 291 kts 94°
2026-04-26 21:36 28.01890 -81.84709 2252 ft 425 kts 178°
2026-04-26 21:36 27.99193 -81.86599 1941 ft 530 kts 254°
2026-04-26 21:37 27.98888 -81.91117 1513 ft 617 kts 269°
2026-04-26 21:37 27.98999 -81.96072 1008 ft 636 kts 272°
2026-04-26 21:37 27.98971 -82.01061 836 ft 634 kts 268°
2026-04-26 21:37 28.00879 -82.04094 1068 ft 485 kts 33°
2026-04-26 21:38 28.01307 -82.01016 1027 ft 382 kts 93°
2026-04-26 21:38 28.02213 -81.99104 1094 ft 247 kts 351°
2026-04-26 21:38 28.02495 -82.00080 946 ft 179 kts 207°
2026-04-26 21:38 28.01207 -81.99455 1103 ft 262 kts 129°
2026-04-26 21:39 27.99672 -81.97931 1387 ft 307 kts 180°
2026-04-26 21:39 27.98689 -81.99365 1002 ft 239 kts 256°
2026-04-26 21:39 27.98285 -82.00974 821 ft 171 kts 255°
2026-04-26 21:39 27.97991 -82.01942 795 ft 93 kts 257°
2026-04-26 21:40 27.98190 -82.02354 734 ft 35 kts 302°
2026-04-26 21:40 27.98296 -82.02264 415 ft 46 kts 76°
2026-04-26 21:40 27.98296 -82.01908 286 ft 44 kts 97°
2026-04-26 21:40 27.98245 -82.01540 206 ft 44 kts 111°
2026-04-26 21:41 27.98222 -82.01409 213 ft 17 kts 93°
2026-04-26 21:41 27.98274 -82.01334 225 ft 1 kts
2026-04-26 21:41 27.98278 -82.01331 143 ft 0 kts 358°
2026-04-26 21:41 27.98279 -82.01331 143 ft 0 kts 358°
2026-04-26 21:42 27.98289 -82.01329 144 ft 17 kts 19°
2026-04-26 21:43 27.98350 -82.01191 145 ft 15 kts 62°
2026-04-26 21:43 27.98419 -82.01202 145 ft 25 kts 343°
2026-04-26 21:43 27.98573 -82.01202 146 ft 19 kts 10°
2026-04-26 21:43 27.98687 -82.01181 146 ft 14 kts
2026-04-26 21:44 27.98781 -82.01094 147 ft 29 kts 87°
2026-04-26 21:44 27.98786 -82.00906 148 ft 22 kts 88°
2026-04-26 21:44 27.98805 -82.00772 148 ft 13 kts 47°
2026-04-26 21:44 27.98844 -82.00758 148 ft 0 kts 356°
2026-04-26 21:50 27.98928 -82.00803 149 ft 6 kts 270°
2026-04-26 21:51 27.98929 -82.00838 149 ft 0 kts 270°
2026-04-26 21:51 27.98929 -82.01504 149 ft 184 kts 270°
2026-04-26 21:52 27.98940 -82.03340 793 ft 287 kts 270°
2026-04-26 21:52 27.99629 -82.05527 3707 ft 308 kts 310°
2026-04-26 21:52 28.01678 -82.06738 7917 ft 399 kts 347°
2026-04-26 21:52 28.04952 -82.07126 9993 ft 534 kts
2026-04-26 21:53 28.09021 -82.06796 9054 ft 640 kts 12°
2026-04-26 21:53 28.13026 -82.05659 7324 ft 567 kts 15°
2026-04-26 21:53 28.16634 -82.04241 5819 ft 521 kts 20°
2026-04-26 21:53 28.19864 -82.02627 4849 ft 537 kts 24°
2026-04-26 21:54 28.23503 -82.00541 4234 ft 621 kts 27°
2026-04-26 21:54 28.27333 -81.98120 3587 ft 633 kts 29°
2026-04-26 21:54 28.31083 -81.95499 3340 ft 630 kts 32°
2026-04-26 21:54 28.34689 -81.92702 3837 ft 625 kts 34°
2026-04-26 21:55 28.38210 -81.89834 4860 ft 623 kts 35°
2026-04-26 21:55 28.41734 -81.86946 5798 ft 620 kts 35°
2026-04-26 21:55 28.45047 -81.84414 6065 ft 522 kts 31°
2026-04-26 21:55 28.47779 -81.82261 5759 ft 451 kts 36°
2026-04-26 21:56 28.49984 -81.80001 5367 ft 408 kts 48°
2026-04-26 21:56 28.51177 -81.77229 4360 ft 384 kts 82°
2026-04-26 21:56 28.50745 -81.74135 2917 ft 439 kts 145°
2026-04-26 21:56 28.48558 -81.74082 2862 ft 234 kts 178°
2026-04-26 21:57 28.47176 -81.74262 2586 ft 181 kts 205°
2026-04-26 21:57 28.45763 -81.74515 2499 ft 263 kts 190°
2026-04-26 21:57 28.44091 -81.74799 2537 ft 220 kts 192°
2026-04-26 21:57 28.42572 -81.75055 2501 ft 228 kts 191°
2026-04-26 21:58 28.41532 -81.75219 2487 ft 235 kts 190°
2026-04-26 21:58 28.39989 -81.75460 2424 ft 220 kts 190°
2026-04-26 21:58 28.38446 -81.75711 2274 ft 235 kts 189°
2026-04-26 21:58 28.36814 -81.75973 2220 ft 224 kts 190°
2026-04-26 21:59 28.35297 -81.76219 2182 ft 218 kts 190°
2026-04-26 21:59 28.33739 -81.76348 2207 ft 228 kts 171°
2026-04-26 21:59 28.32282 -81.75598 2216 ft 224 kts 154°
2026-04-26 21:59 28.30752 -81.75297 2253 ft 231 kts 189°
2026-04-26 22:00 28.29266 -81.75615 2231 ft 219 kts 193°
2026-04-26 22:00 28.27734 -81.75938 2232 ft 226 kts 193°
2026-04-26 22:00 28.26212 -81.76260 2252 ft 232 kts 193°
2026-04-26 22:00 28.24661 -81.76580 2228 ft 215 kts 193°
2026-04-26 22:01 28.23145 -81.76899 2212 ft 225 kts 193°
2026-04-26 22:01 28.21617 -81.77219 2179 ft 232 kts 193°
2026-04-26 22:01 28.20051 -81.77597 2217 ft 225 kts 198°
2026-04-26 22:01 28.18627 -81.78243 2173 ft 217 kts 208°
2026-04-26 22:02 28.17350 -81.79097 2123 ft 205 kts 215°
2026-04-26 22:02 28.16071 -81.80034 2179 ft 228 kts 215°
2026-04-26 22:02 28.14826 -81.80950 2214 ft 209 kts 215°
2026-04-26 22:02 28.13546 -81.81868 2234 ft 235 kts 214°
2026-04-26 22:03 28.12276 -81.82808 2254 ft 203 kts 221°
2026-04-26 22:03 28.11283 -81.84050 2263 ft 222 kts 239°
2026-04-26 22:03 28.10631 -81.85502 2226 ft 210 kts 248°
2026-04-26 22:03 28.10104 -81.86973 2208 ft 210 kts 251°
2026-04-26 22:04 28.09587 -81.88472 2296 ft 209 kts 251°
2026-04-26 22:04 28.09174 -81.89985 2234 ft 191 kts 258°
2026-04-26 22:04 28.08894 -81.91641 2210 ft 216 kts 262°
2026-04-26 22:04 28.08540 -81.93224 2184 ft 212 kts 244°
2026-04-26 22:05 28.07421 -81.94303 2060 ft 230 kts 207°
2026-04-26 22:05 28.06051 -81.94925 2100 ft 202 kts 201°
2026-04-26 22:05 28.04601 -81.95392 2076 ft 205 kts 199°
2026-04-26 22:05 28.03321 -81.95781 1996 ft 202 kts 195°
2026-04-26 22:06 28.02026 -81.96067 1761 ft 171 kts 197°
2026-04-26 22:06 28.00807 -81.96385 1572 ft 175 kts 200°
2026-04-26 22:06 27.99741 -81.96940 1234 ft 169 kts 219°
2026-04-26 22:06 27.99011 -81.97809 811 ft 146 kts 251°
2026-04-26 22:07 27.98909 -81.98975 669 ft 135 kts 272°
2026-04-26 22:07 27.98923 -82.00236 362 ft 159 kts 272°
2026-04-26 22:07 27.98940 -82.01195 146 ft 107 kts 270°
2026-04-26 22:07 27.98941 -82.02011 144 ft 80 kts 267°
2026-04-26 22:08 27.98931 -82.02305 143 ft 5 kts 216°
2026-04-26 22:08 27.98829 -82.02295 142 ft 5 kts 179°
2026-04-26 22:08 27.98797 -82.02294 142 ft 0 kts 179°
2026-04-26 22:08 27.98766 -82.02294 142 ft 10 kts 178°
2026-04-26 22:09 27.98685 -82.02293 141 ft 43 kts 180°
2026-04-26 22:09 27.98569 -82.02215 140 ft 27 kts 68°
2026-04-26 22:09 27.98608 -82.02168 140 ft 0 kts 49°